RH
25 26 25 24 25 24 27 26 28 31 30 29 22 21 23 25 33 46 57 59 60 60 63 66 66 70 74 75 74 72 75 77 76 74 76 77 74 72 74 75 76 74 70 71 72 70 71 71 68 63 60 58 56 55 54 53 53 55 56 55 54 54 54 56 60 62 64 65 67 69 69 67 63 61 60 60 60 60 59 58 57 56 55 53 52 52 51 50 50 49 48 47 46 45 45 44 45
23 24 23 24 26 25 28 27 29 32 28 24 20 23 27 33 42 50 55 55 61 65 66 69 67 67 70 72 71 73 75 76 76 75 75 73 70 68 69 72 72 71 70 70 70 68 67 65 62 60 60 58 56 55 55 55 56 57 57 57 57 58 61 64 64 65 66 68 70 69 67 65 64 62 62 63 63 62 60 58 56 55 54 53 51 50 49 48 49 51 52 50 47 46 46 46 49
21 22 22 23 25 25 27 27 29 30 26 23 24 29 34 45 53 53 55 54 61 70 69 68 67 65 66 68 69 70 72 73 73 73 73 72 68 68 70 71 70 70 69 67 66 64 61 59 59 61 62 60 59 57 56 55 56 57 58 59 60 62 67 70 69 68 68 70 71 70 68 68 68 67 66 65 63 61 59 57 55 54 53 51 49 48 47 46 48 52 53 53 50 46 47 48 50
20 21 21 21 24 24 25 26 27 25 23 25 30 41 48 53 60 60 60 58 59 69 72 71 67 66 68 69 68 67 71 72 72 72 72 69 66 67 70 72 70 67 65 63 63 61 59 60 61 62 63 63 61 58 57 57 59 59 60 61 62 64 66 70 69 68 68 70 70 69 70 71 70 69 67 64 61 58 57 55 53 51 49 47 46 46 46 46 49 52 52 53 51 48 50 52 53
20 20 19 20 24 25 24 25 23 21 25 28 31 46 57 57 64 69 68 67 63 64 70 71 68 68 69 69 69 70 73 73 71 71 70 68 67 67 71 72 69 66 64 63 61 59 58 61 62 63 64 64 61 59 58 59 61 61 61 61 62 63 64 66 67 67 69 70 70 71 70 69 67 65 64 61 58 57 56 53 51 49 48 47 47 48 48 51 53 54 53 52 50 48 51 54 55
20 20 18 19 23 25 25 25 23 25 31 33 40 54 61 57 59 65 70 71 68 64 64 67 69 69 71 71 71 73 74 74 73 72 70 70 71 71 72 72 68 66 64 62 59 58 60 61 61 63 63 62 60 58 60 61 62 62 62 62 63 65 66 67 68 69 70 71 71 70 68 66 63 60 59 58 57 56 55 52 49 49 49 49 50 51 52 55 56 57 55 53 50 47 49 53 56
18 19 18 19 23 25 26 26 26 32 39 43 54 67 69 68 63 62 67 70 68 64 64 67 69 69 72 72 72 74 74 75 75 75 73 73 75 74 72 68 64 62 60 58 57 58 60 59 59 61 61 61 59 59 61 63 64 63 63 63 65 68 69 68 68 69 70 71 69 67 65 62 60 59 58 58 57 56 55 53 50 49 49 49 50 52 53 54 55 56 55 53 51 48 47 50 53
15 19 18 19 24 24 25 27 30 37 46 50 57 66 68 71 74 73 71 71 71 65 64 66 65 68 73 73 74 75 73 74 76 77 76 76 77 74 69 65 61 59 58 57 57 58 57 59 61 63 62 61 60 60 63 64 64 63 62 61 64 67 65 64 66 68 69 67 64 61 59 59 59 58 58 58 57 55 54 53 50 48 48 49 50 52 52 53 53 54 54 53 50 47 45 47 51
11 17 16 17 22 22 25 29 36 44 50 55 58 61 61 66 77 83 79 75 73 64 61 63 62 69 75 74 74 73 71 71 74 75 74 75 75 72 66 62 59 57 57 57 58 57 58 61 64 65 64 61 61 63 63 63 63 62 62 62 64 65 63 61 62 64 64 62 59 58 57 58 58 57 57 56 55 55 54 53 51 49 48 49 50 50 50 51 51 52 53 52 48 46 45 47 50
10 16 16 17 20 22 27 33 45 49 49 55 57 57 59 66 77 85 83 76 69 64 63 62 63 68 73 74 73 71 70 72 76 77 75 73 72 67 61 58 56 55 57 58 57 58 60 64 66 65 64 63 63 64 63 62 62 63 63 63 63 63 61 59 59 60 60 58 57 56 57 58 58 57 55 54 53 52 52 52 52 50 49 49 49 49 49 50 50 51 52 51 48 47 46 47 50
10 15 15 18 22 25 30 41 51 49 47 52 54 57 56 64 81 85 80 72 64 64 65 64 67 70 71 72 71 72 71 74 78 79 76 72 66 60 57 56 56 56 58 59 60 62 63 65 66 66 65 65 65 64 63 62 62 62 63 63 62 60 59 57 57 58 56 55 55 55 56 57 57 55 54 53 51 52 53 53 52 52 50 50 49 49 50 51 52 52 52 51 51 48 46 47 49
13 18 20 23 28 30 35 46 55 54 54 56 59 64 62 65 83 87 76 70 65 64 64 65 71 70 68 68 70 74 74 76 78 76 73 66 61 59 58 59 60 61 61 63 64 63 63 64 64 65 66 68 67 64 62 61 60 60 61 62 61 60 58 57 56 55 54 55 55 55 55 55 55 55 54 53 53 54 54 53 53 52 53 53 53 51 52 52 54 54 55 54 54 52 49 48 49
19 23 26 28 31 38 45 52 57 61 64 64 68 76 74 71 79 84 77 70 64 63 66 68 70 69 68 68 71 75 75 79 76 70 65 61 60 61 62 64 65 65 65 65 64 63 64 65 64 64 66 66 65 63 62 60 59 58 59 60 60 59 57 55 55 55 56 55 55 56 55 53 53 53 54 54 54 54 53 52 51 52 54 56 55 54 54 54 54 55 56 56 56 55 51 51 51
24 26 29 32 35 43 49 54 58 61 64 65 74 80 79 78 81 82 77 70 64 66 67 67 71 72 73 74 76 77 79 82 74 65 63 63 63 64 65 67 68 67 66 65 64 65 66 65 65 65 64 64 63 61 60 58 57 55 55 56 56 56 54 54 54 55 55 53 55 58 54 52 52 51 52 52 52 52 51 50 49 50 52 54 55 55 54 53 52 49 48 50 51 50 50 52 54
27 30 34 39 47 50 50 56 58 58 60 61 69 74 75 80 82 78 74 70 67 68 65 66 71 74 80 80 80 81 83 82 72 65 66 66 66 66 67 67 68 68 68 66 66 66 67 67 65 64 63 62 61 58 56 55 54 52 51 51 51 53 54 53 52 53 53 52 54 54 51 50 50 48 49 49 50 50 49 48 47 48 49 50 51 51 52 53 53 49 46 46 45 46 50 53 55
29 32 37 46 54 54 52 55 56 57 62 62 63 69 75 78 75 74 72 67 67 67 63 70 78 80 85 83 83 86 84 77 69 67 68 67 67 67 65 66 69 71 70 69 68 67 67 66 65 63 62 60 58 56 54 53 51 49 46 45 48 51 55 54 50 48 49 50 49 47 46 45 45 45 45 46 48 48 46 47 47 47 47 47 48 49 50 51 53 53 52 51 48 47 50 53 55
31 31 38 46 49 50 49 51 53 57 63 63 61 64 71 72 68 69 69 64 68 68 63 76 90 89 87 84 82 82 79 75 69 69 70 69 69 67 64 66 71 72 70 67 66 65 64 64 63 62 60 59 56 56 56 55 52 49 47 48 51 51 54 55 49 45 46 48 46 44 45 45 45 44 44 46 48 48 47 49 49 49 48 47 49 50 49 50 53 54 55 55 54 53 54 55 56
39 42 46 49 50 53 52 50 50 52 58 60 59 61 65 67 65 66 68 66 71 71 70 84 94 92 88 82 78 75 75 74 72 72 72 69 69 67 65 65 68 69 67 65 65 64 63 62 61 60 61 60 58 59 60 59 56 53 52 54 55 54 54 53 48 46 46 47 47 46 47 49 49 48 48 50 52 52 53 54 54 55 53 52 54 56 53 52 54 55 55 56 57 57 58 57 56
46 53 58 57 56 58 55 55 54 53 58 60 60 60 60 62 64 67 69 70 73 76 80 90 93 89 84 78 75 76 76 75 72 70 69 66 66 67 67 68 68 67 67 68 67 64 63 63 63 63 63 62 61 61 61 59 58 57 56 56 56 57 56 51 47 45 45 46 49 49 50 52 52 51 52 52 52 53 54 55 54 53 53 52 54 56 53 51 52 52 51 52 54 54 55 53 53
48 54 61 59 57 57 56 56 56 57 62 65 65 63 60 62 66 70 73 75 79 80 82 87 88 84 80 75 73 74 77 77 73 69 67 66 66 68 69 69 69 67 64 65 66 65 63 64 64 63 62 61 60 60 58 57 56 56 55 55 56 56 53 51 49 48 47 47 49 50 50 51 52 51 51 50 47 48 48 48 47 45 46 46 47 49 48 47 48 48 47 47 48 48 47 46 47
50 55 58 56 54 58 60 59 59 62 66 69 70 68 67 67 71 78 78 81 85 83 81 83 83 82 79 76 75 75 78 79 74 68 66 65 65 66 66 66 65 63 60 60 63 63 62 62 61 59 57 57 57 56 54 53 53 52 52 53 54 54 52 51 51 50 50 49 50 51 50 49 50 49 48 46 43 42 42 42 42 41 41 40 41 42 43 44 45 46 46 46 45 46 45 44 44
54 56 56 56 57 61 64 64 67 70 71 73 74 74 73 73 76 80 79 83 87 82 80 80 81 82 79 77 79 79 79 77 72 67 65 63 63 63 62 61 61 61 60 61 61 60 59 58 56 55 55 56 57 55 53 52 52 52 51 51 51 50 50 49 48 47 47 48 47 47 46 44 45 45 44 44 43 42 42 42 42 42 42 40 40 39 40 43 44 45 45 45 45 45 46 46 45
57 59 59 62 63 66 67 66 71 75 76 77 77 76 76 78 82 83 81 86 86 78 74 76 79 82 80 78 79 77 74 72 70 67 65 62 60 61 60 59 59 59 61 62 60 57 57 57 56 54 54 56 58 56 53 52 51 50 49 48 46 45 45 44 44 42 41 41 41 39 40 40 42 42 42 43 43 42 43 43 43 43 43 43 43 42 41 43 43 42 43 43 43 43 43 44 44
59 63 65 67 68 70 69 67 71 76 79 78 75 77 81 85 89 88 87 87 84 78 77 79 80 80 79 80 78 74 71 69 68 65 62 59 57 57 59 60 61 60 60 60 58 55 55 57 57 54 53 54 54 52 50 50 49 47 46 44 41 41 40 39 39 38 36 35 36 36 37 38 40 40 41 41 42 41 41 42 41 41 42 43 43 41 41 41 39 38 39 40 41 40 40 39 40
63 65 68 70 72 72 70 68 73 78 79 77 76 81 85 86 88 89 89 87 85 85 85 84 83 81 82 82 77 72 68 64 61 59 56 54 54 56 58 61 62 61 59 58 56 55 54 55 55 53 52 51 49 47 46 46 44 41 40 39 38 38 36 37 38 36 34 34 35 37 37 37 38 39 40 41 40 40 41 41 39 39 38 38 38 37 37 37 35 34 34 36 37 37 37 37 36
64 67 70 70 72 71 69 70 74 78 79 79 81 86 87 84 84 86 88 89 90 88 86 84 83 84 84 81 75 70 63 58 56 55 54 55 56 58 60 61 59 56 54 52 50 48 48 48 48 48 48 47 45 42 40 38 35 33 33 33 34 35 35 35 38 37 35 35 35 37 38 38 39 39 40 40 39 40 41 40 38 37 35 34 34 35 35 35 35 34 32 34 34 35 36 35 35
66 70 71 71 73 70 69 70 71 75 79 82 84 86 84 79 79 82 84 90 92 86 84 85 83 82 82 80 75 68 61 58 58 57 57 60 61 60 60 59 55 51 47 42 39 36 35 36 37 39 39 38 38 35 32 28 27 27 27 29 32 33 34 34 36 38 36 35 35 36 38 39 39 39 39 39 39 39 38 36 35 34 33 32 32 32 32 34 35 34 32 32 31 33 34 33 33
68 68 68 71 75 70 69 72 73 75 78 79 79 79 79 76 77 79 81 86 88 83 84 84 82 80 80 77 73 69 63 61 62 60 60 62 62 59 58 54 48 45 40 34 31 30 30 30 31 33 33 33 31 28 26 23 24 26 26 28 31 32 31 31 34 37 36 35 35 34 36 38 38 37 37 37 37 36 34 31 30 30 29 30 29 27 28 30 30 30 28 26 25 25 26 26 28
70 68 69 73 76 73 74 77 78 80 80 76 76 77 79 79 79 80 82 85 85 86 85 80 78 79 78 72 69 68 64 63 63 62 61 59 57 54 51 47 42 38 34 30 29 30 30 31 32 32 32 30 26 24 24 24 25 28 27 28 30 30 30 30 32 35 35 34 33 33 34 35 35 33 32 31 30 30 27 24 24 24 25 26 25 22 21 23 22 22 20 17 17 18 18 19 19
74 74 75 76 77 79 80 79 80 81 80 77 77 79 80 81 81 80 83 87 87 86 81 74 74 75 76 73 70 69 66 64 63 61 60 57 54 50 45 41 37 33 31 30 29 30 30 31 31 29 28 25 22 23 25 27 26 27 28 28 28 28 29 31 33 35 34 31 29 28 26 28 30 30 27 26 24 22 21 19 18 18 19 20 20 17 15 15 14 14 12 12 14 15 16 17 17
76 76 76 76 78 82 84 82 83 83 80 78 78 80 81 81 81 80 81 85 86 81 73 70 71 70 72 72 69 68 66 66 64 61 59 56 52 46 41 37 34 31 30 29 29 28 28 27 27 26 25 23 23 23 25 26 26 25 26 26 26 25 26 28 31 32 29 26 24 22 19 19 23 27 27 25 21 18 18 17 17 17 16 15 14 13 12 10 9 9 9 10 14 15 15 17 17
77 77 75 75 77 83 86 83 85 84 79 79 79 80 81 81 82 80 78 78 79 77 71 68 68 68 70 68 66 66 65 64 61 60 58 54 49 44 40 35 32 30 28 28 26 25 24 24 25 26 26 25 25 25 25 25 24 24 24 23 23 23 23 23 23 24 20 21 23 22 19 17 18 21 22 22 19 15 14 15 17 17 16 13 11 11 11 11 10 10 10 11 13 14 15 15 15
78 78 77 74 76 81 84 83 86 86 82 81 79 78 80 80 81 80 77 76 77 77 72 68 68 71 70 67 67 67 64 61 59 58 55 50 46 42 39 35 32 30 28 26 25 23 22 24 26 27 27 27 25 26 26 24 23 22 21 21 21 20 20 19 18 16 14 19 22 22 22 21 19 18 17 18 16 14 14 14 14 15 15 13 11 12 12 13 12 10 11 13 14 15 15 14 13
77 78 78 75 75 77 79 83 84 83 82 82 78 77 79 80 80 79 77 76 78 78 74 71 72 72 70 66 66 65 61 59 57 54 50 45 42 40 39 37 36 33 29 26 24 24 24 24 26 27 27 27 26 25 25 24 23 22 21 21 20 19 19 19 18 16 15 20 23 23 23 23 21 19 17 16 15 15 16 15 14 14 14 13 12 13 14 14 13 12 11 13 15 15 15 15 13
73 73 74 73 76 77 78 81 82 80 81 79 77 78 79 81 82 80 78 76 78 78 75 74 74 71 69 67 66 63 59 58 55 51 46 43 41 39 39 39 38 35 32 27 23 24 25 25 26 25 26 26 26 25 24 23 23 22 21 21 20 19 19 20 20 19 19 21 23 24 24 22 21 20 17 15 14 16 18 16 15 14 15 14 13 14 16 15 15 14 12 13 15 16 16 16 14
68 69 69 72 77 79 79 80 79 79 80 80 79 78 80 83 82 79 78 77 77 78 76 74 73 70 69 69 66 62 60 56 52 48 45 43 41 39 39 39 38 36 33 28 23 22 24 25 25 24 25 25 25 25 24 23 22 21 21 20 19 19 20 22 22 22 21 21 21 22 22 22 22 21 18 15 13 15 16 16 15 16 18 17 15 16 19 18 17 16 15 15 15 15 16 17 16
65 68 69 72 77 79 79 78 78 77 79 81 78 78 80 82 80 76 75 77 77 76 75 73 71 70 69 68 64 60 56 52 48 45 43 43 42 41 39 39 37 35 32 28 22 19 19 21 22 21 22 23 24 23 23 22 21 20 20 19 19 20 21 23 23 23 23 21 20 19 19 18 20 21 19 15 15 17 17 14 16 20 20 18 18 18 20 21 21 20 19 18 16 17 19 20 20
61 65 68 72 76 77 76 78 81 78 78 79 76 76 78 78 76 73 73 76 75 72 72 71 70 68 66 63 58 54 51 48 46 44 43 43 43 41 41 39 36 33 30 25 20 17 16 16 17 18 20 20 21 22 21 20 20 19 18 18 19 21 23 23 23 23 22 21 20 19 19 17 17 20 19 16 17 21 20 16 17 22 21 20 18 18 21 22 23 23 23 21 17 19 21 22 21
61 62 65 70 73 75 78 79 81 79 78 77 75 76 78 77 75 72 71 73 71 68 67 67 66 63 61 57 51 48 48 47 45 45 45 45 43 41 40 38 34 31 29 26 22 18 17 17 19 20 19 19 20 22 21 19 19 18 18 19 20 22 23 23 22 22 21 20 19 20 21 19 16 18 20 18 18 21 21 18 18 21 21 20 17 17 22 24 23 24 24 23 20 19 20 21 20
59 61 62 64 67 72 77 80 80 79 78 78 76 78 79 78 76 71 70 70 67 65 64 63 62 60 59 55 50 47 48 48 47 47 48 47 44 41 39 37 35 33 30 26 23 20 18 19 22 22 21 19 18 20 21 20 20 19 19 21 22 22 23 23 21 21 21 19 19 21 22 20 16 17 21 21 20 19 20 20 18 18 18 18 17 17 21 23 24 25 25 25 22 20 22 21 19
57 58 60 61 66 70 72 75 77 78 79 77 77 82 81 78 75 71 67 66 65 64 63 62 60 59 59 55 52 51 51 51 52 51 51 48 45 42 40 39 36 33 31 27 23 21 19 19 21 21 20 19 19 18 19 19 20 21 22 23 24 23 24 23 21 20 20 19 20 21 21 19 17 18 20 22 22 18 17 19 16 12 13 14 17 17 18 20 23 24 24 25 22 23 25 23 19
57 57 59 59 64 68 70 74 76 80 84 78 77 83 82 77 75 70 66 64 65 65 64 64 63 62 60 57 55 55 56 57 55 54 53 48 45 44 42 40 35 33 31 27 23 20 18 18 19 18 18 19 20 19 19 18 20 23 24 24 24 24 24 23 21 20 20 19 21 22 21 21 21 19 18 21 22 16 13 15 12 9 10 11 14 15 14 16 19 20 21 20 18 21 23 22 18
57 56 58 59 62 65 68 73 75 79 82 77 77 82 82 78 74 69 67 67 67 68 68 67 66 65 63 61 60 61 63 62 59 57 54 48 47 47 43 39 35 33 31 26 22 20 19 19 19 18 18 19 20 20 20 21 22 24 25 24 25 24 23 22 21 20 21 21 23 23 22 22 22 20 18 18 17 14 12 11 10 9 10 10 11 11 10 12 15 16 16 15 14 16 17 18 18
52 52 58 61 63 66 66 68 73 74 74 76 78 79 81 80 74 69 70 71 71 70 69 66 65 65 64 63 64 65 67 66 63 60 54 50 49 47 41 38 34 33 31 26 22 20 20 20 20 19 19 20 20 21 22 23 24 25 24 24 26 24 22 21 21 21 22 22 22 22 21 23 22 18 16 15 13 12 11 10 10 11 11 11 12 13 12 13 14 14 15 16 16 16 16 17 17
45 46 55 58 58 64 66 67 73 71 73 81 78 75 81 80 72 69 72 74 74 71 68 66 62 62 62 62 64 67 68 67 65 62 56 51 49 45 40 39 34 32 31 26 22 22 22 22 22 22 21 20 20 22 23 24 24 25 24 22 23 23 21 19 20 21 23 22 20 19 20 20 19 17 15 13 11 11 11 11 12 14 15 16 16 17 16 16 16 16 17 17 17 17 17 17 17
40 43 52 56 56 62 66 69 71 71 78 84 76 74 82 81 73 71 75 76 72 69 68 66 61 60 60 59 60 63 65 66 65 63 56 50 48 44 41 41 36 32 31 25 22 24 24 23 23 23 23 23 24 24 25 26 25 25 24 22 21 21 19 17 15 16 18 18 17 17 16 15 15 14 14 13 13 14 14 15 16 17 17 17 17 17 16 16 16 16 16 16 16 17 17 17 18
41 46 52 58 62 66 70 74 71 71 80 79 71 70 75 79 74 70 72 70 65 65 66 64 61 61 61 57 56 58 61 64 65 63 57 51 48 45 42 42 38 34 31 25 23 25 25 24 24 25 27 28 30 29 28 28 28 27 27 25 23 23 23 20 16 16 18 18 18 18 17 17 15 14 14 15 16 17 18 18 18 18 18 17 17 17 16 16 16 16 17 17 17 17 18 18 19
45 52 55 62 69 70 75 79 72 72 78 74 68 67 68 73 71 65 63 62 61 64 63 61 59 59 58 55 55 56 58 61 61 61 58 52 48 46 44 43 41 36 29 24 25 26 25 26 27 29 31 34 35 34 33 33 32 30 29 28 27 26 26 24 22 22 22 22 22 22 21 20 18 16 17 18 19 19 19 19 19 18 18 18 18 17 17 17 18 18 19 19 19 20 20 21 22
51 57 60 64 70 70 72 78 75 72 73 69 65 67 70 70 65 60 58 57 58 58 58 59 56 53 53 54 54 54 55 57 57 58 57 51 48 48 46 46 43 37 28 24 25 26 27 30 31 33 35 38 39 38 36 37 36 33 32 31 29 28 28 26 25 25 24 24 23 23 22 21 20 19 19 20 20 19 19 19 19 19 19 18 19 19 18 19 20 20 20 21 22 22 23 24 26
54 61 65 65 69 71 72 76 73 70 69 68 65 65 69 67 58 56 55 53 54 54 54 57 56 54 52 51 52 54 55 56 55 55 53 49 49 50 49 47 44 35 25 23 26 29 33 36 37 37 38 39 40 40 38 39 39 36 35 34 32 30 30 29 28 27 26 26 24 24 23 21 21 20 21 20 20 20 20 20 20 20 19 20 20 20 20 21 21 22 23 23 24 26 28 29 30
57 62 65 66 67 67 68 67 66 68 69 68 66 63 65 62 57 56 54 51 52 50 51 55 55 56 53 51 53 55 55 54 53 52 50 49 50 51 50 46 43 35 25 24 29 33 37 40 41 41 41 41 42 42 42 42 41 40 38 38 36 35 34 34 32 30 29 28 26 25 24 23 22 21 21 21 21 21 21 21 21 21 21 21 22 22 23 24 25 25 26 27 29 31 33 34 35
57 58 61 62 61 60 62 59 59 64 67 68 65 61 63 60 58 60 56 52 52 49 50 54 56 57 55 54 53 53 54 53 52 50 48 49 50 51 50 46 45 38 28 29 35 37 41 43 44 44 43 43 44 45 46 45 45 44 43 42 40 39 38 37 36 34 33 31 29 27 25 24 23 22 23 22 22 22 22 22 23 23 25 26 27 27 27 29 30 30 30 31 34 36 38 40 41
52 53 53 54 52 54 58 56 58 63 64 67 64 59 63 61 58 61 58 54 56 53 50 52 57 58 55 53 52 53 56 54 52 50 48 49 51 52 50 47 47 41 33 35 39 40 44 46 47 47 45 46 47 48 49 49 48 47 47 46 44 42 42 41 40 39 37 36 33 29 26 25 25 25 25 24 24 25 26 27 28 31 33 33 32 32 33 35 35 35 34 35 37 39 40 42 42
47 49 48 47 46 53 57 55 62 68 65 66 64 61 62 60 57 60 59 57 58 57 53 52 55 57 55 53 52 54 56 53 51 51 50 50 51 52 50 47 48 44 38 38 41 43 46 47 49 49 48 48 49 50 51 51 50 50 49 48 46 45 44 43 43 43 43 41 38 33 29 29 29 29 28 28 30 32 33 35 38 40 40 37 36 36 37 37 36 36 37 38 40 40 40 41 40
42 41 42 46 47 52 55 51 57 65 66 66 65 62 61 58 58 58 56 58 58 57 58 56 56 57 56 56 54 52 54 53 52 51 50 50 50 52 50 47 48 46 42 42 44 46 47 48 50 51 49 49 50 52 53 53 53 52 51 48 47 46 45 46 46 48 47 44 41 36 33 33 33 32 32 34 37 39 42 43 45 44 42 39 37 36 36 35 36 38 39 39 40 39 38 38 37
42 42 45 49 49 50 51 48 51 60 68 70 64 62 60 59 59 55 52 56 58 58 60 60 59 58 56 57 55 53 52 51 51 50 50 49 49 52 51 48 48 46 45 47 47 48 49 50 50 50 49 50 51 52 52 52 53 53 52 50 48 48 48 50 52 51 50 47 42 40 37 36 37 38 39 41 44 45 47 48 47 44 41 37 36 36 37 38 38 38 37 37 37 37 37 37 37
41 45 48 48 48 48 47 46 50 55 66 72 67 63 61 57 55 53 51 54 56 59 60 58 59 58 57 57 56 54 51 49 49 49 48 49 51 52 50 49 48 46 46 48 49 49 50 49 49 49 49 49 50 51 52 53 54 54 54 51 51 50 50 52 55 53 50 46 42 41 39 37 40 43 45 46 47 48 48 47 44 41 38 37 39 40 40 39 37 36 36 36 37 37 38 38 39
34 37 38 40 43 43 42 44 48 48 54 61 61 59 60 56 53 51 52 54 57 59 59 58 58 57 57 57 56 55 52 48 48 48 48 50 51 49 47 48 48 45 46 48 48 49 49 48 49 50 50 50 50 51 52 53 54 53 52 51 51 51 51 54 56 52 49 46 44 43 42 40 43 47 47 48 49 48 46 45 43 41 39 40 41 40 39 37 36 36 37 37 39 39 39 39 39